"Pseudo-MPEC" for P10UYNr

Created 2019 Dec 4 10:07:22 UT using Find_Orb

Click here for an explanation of pseudo-MPECs

 
 Astrometry: 
     P10UYNr  C2019 11 28!enOb\7t5]\H2l!kFivS6FEtI/Gv4we(M'!.V7VhAstrometry*2F51
     P10UYNr  C2019 11 284P!0)kV(eY7fw4redacted;A2clicke,nlhhere3eCuA[+ce=w;rF51
     P10UYNr  C2019 11 28ayforcr')Qso)aj;wcs?explanationP^bKYCWB.N@$![#dS^G+1F51

Station data:
(F51) Pan-STARRS 1, Haleakala  (N20.707235 W156.255910)  US/Hawaii.
   Observers N. Primak, A. Schultz, S. Watters, J. Thiel, T. Goggia. Measurer
   PS1 Science Consortium. 1.8-m Ritchey-Chrétien + CCD.

Orbital elements:  P10UYNr
   Perihelion 2019 Dec 9.030917 +/- 30.6 TT =  0:44:31 (JD 2458826.530917)
Epoch 2019 Nov 28.0 TT = JDT 2458815.5   Earth MOID: 0.0067   AutoNEOCP
M 351.15014131 +/- 19               (J2000 ecliptic)
n   0.80227772 +/- 0.399            Peri.  195.36486 +/- 59
a   1.14706023 +/- 0.38             Node   241.40768 +/- 58
e   0.1368116 +/- 0.255             Incl.    3.60817 +/- 11
P   1.23/448.71d           H 28.5   G  0.15   U 12.1  SR
q 0.99012907 +/- 0.109    Q 1.30399139 +/- 39.7
From 3 observations 2019 Nov. 28 (29.7 min); mean residual 0".20
Residuals in arcseconds: 
191128 F51  .09+  .19-    191128 F51  .17-  .37+    191128 F51  .09+  .18-    

Ephemerides (geocentric):
Date (UTC) HH   RA              Dec         delta   r     elong  mag " sig PA
---- -- -- --  -------------   -----------  ------ ------ -----  --- ---- ---
2019 12 04 10  06 28 25.916   -40 35 55.50  .01235 0.9904 112.4 21.3  40d 168
2019 12 04 11  06 29 18.390   -40 38 50.96  .01240 0.9904 112.3 21.3  40d 167
2019 12 04 12  06 30 10.540   -40 41 43.50  .01245 0.9904 112.2 21.3  40d 167
2019 12 04 13  06 31 02.366   -40 44 33.16  .01250 0.9904 112.1 21.3  40d 167
2019 12 04 14  06 31 53.871   -40 47 19.98  .01254 0.9904 112.0 21.4  40d 167
2019 12 04 15  06 32 45.055   -40 50 04.00  .01259 0.9903 111.9 21.4  40d 167
2019 12 04 16  06 33 35.922   -40 52 45.28  .01264 0.9903 111.8 21.4  40d 167
2019 12 04 17  06 34 26.471   -40 55 23.83  .01269 0.9903 111.7 21.4  40d 167
2019 12 04 18  06 35 16.705   -40 57 59.72  .01273 0.9903 111.6 21.4  40d 167
2019 12 04 19  06 36 06.626   -41 00 32.97  .01278 0.9903 111.5 21.4  40d 167
2019 12 04 20  06 36 56.235   -41 03 03.62  .01283 0.9903 111.4 21.4  40d 167
2019 12 04 21  06 37 45.533   -41 05 31.72  .01288 0.9903 111.3 21.4  40d 167
2019 12 04 22  06 38 34.524   -41 07 57.31  .01293 0.9903 111.2 21.4  40d 167
2019 12 04 23  06 39 23.207   -41 10 20.41  .01298 0.9903 111.1 21.5  40d 167
2019 12 05 00  06 40 11.585   -41 12 41.07  .01302 0.9903 111.0 21.5  40d 167
2019 12 05 01  06 40 59.659   -41 14 59.32  .01307 0.9903 110.9 21.5  40d 167
2019 12 05 02  06 41 47.432   -41 17 15.21  .01312 0.9903 110.8 21.5  40d 167
2019 12 05 03  06 42 34.905   -41 19 28.76  .01317 0.9902 110.7 21.5  40d 167
2019 12 05 04  06 43 22.079   -41 21 40.01  .01322 0.9902 110.6 21.5  40d 167
2019 12 05 05  06 44 08.957   -41 23 48.99  .01327 0.9902 110.5 21.5  40d 167
2019 12 05 06  06 44 55.539   -41 25 55.75  .01332 0.9902 110.4 21.5  40d 167
2019 12 05 07  06 45 41.829   -41 28 00.30  .01337 0.9902 110.3 21.5  40d 167
2019 12 05 08  06 46 27.827   -41 30 02.70  .01341 0.9902 110.2 21.6  40d 167
2019 12 05 09  06 47 13.536   -41 32 02.96  .01346 0.9902 110.1 21.6  40d 167
2019 12 05 10  06 47 58.956   -41 34 01.12  .01351 0.9902 110.0 21.6  40d 167
2019 12 05 11  06 48 44.091   -41 35 57.21  .01356 0.9902 110.0 21.6  40d 167
2019 12 05 12  06 49 28.941   -41 37 51.27  .01361 0.9902 109.9 21.6  40d 167
2019 12 05 13  06 50 13.508   -41 39 43.32  .01366 0.9902 109.8 21.6  40d 167
2019 12 05 14  06 50 57.795   -41 41 33.40  .01371 0.9902 109.7 21.6  40d 167
2019 12 05 15  06 51 41.802   -41 43 21.53  .01376 0.9901 109.6 21.6  40d 167
2019 12 05 16  06 52 25.532   -41 45 07.75  .01381 0.9901 109.5 21.6  40d 167
2019 12 05 17  06 53 08.986   -41 46 52.08  .01386 0.9901 109.5 21.6  40d 167
2019 12 05 18  06 53 52.166   -41 48 34.55  .01391 0.9901 109.4 21.7  40d 167
2019 12 05 19  06 54 35.075   -41 50 15.19  .01396 0.9901 109.3 21.7  40d 167
2019 12 05 20  06 55 17.712   -41 51 54.03  .01401 0.9901 109.2 21.7  40d 167
2019 12 05 21  06 56 00.082   -41 53 31.09  .01406 0.9901 109.1 21.7  40d 167
2019 12 05 22  06 56 42.184   -41 55 06.41  .01411 0.9901 109.1 21.7  40d 167
2019 12 05 23  06 57 24.021   -41 56 40.01  .01416 0.9901 109.0 21.7  40d 167
2019 12 06 00  06 58 05.595   -41 58 11.91  .01421 0.9901 108.9 21.7  40d 167
2019 12 06 01  06 58 46.907   -41 59 42.14  .01426 0.9901 108.8 21.7  40d 167
2019 12 06 02  06 59 27.959   -42 01 10.72  .01431 0.9901 108.8 21.7  40d 167
2019 12 06 03  07 00 08.753   -42 02 37.69  .01436 0.9901 108.7 21.8  40d 167
2019 12 06 04  07 00 49.290   -42 04 03.06  .01441 0.9901 108.6 21.8  40d 167
2019 12 06 05  07 01 29.573   -42 05 26.87  .01446 0.9900 108.5 21.8  40d 167
2019 12 06 06  07 02 09.603   -42 06 49.12  .01451 0.9900 108.5 21.8  40d 167
2019 12 06 07  07 02 49.382   -42 08 09.86  .01456 0.9900 108.4 21.8  40d 167
2019 12 06 08  07 03 28.910   -42 09 29.09  .01461 0.9900 108.3 21.8  40d 167
2019 12 06 09  07 04 08.191   -42 10 46.85  .01466 0.9900 108.3 21.8  40d 167